Location: Nitra
(48.3167°N, 18.0833°E)
Time: 16:55:49
(UTC+01:00)

STARLINK-1686 - Pass Details

Date: 24 September 2020
Orbit: 378 x 381 km, 53.0° (Epoch: 30 October)

Event Time Altitude Azimuth Distance (km) Brightness Sun altitude
Exits shadow 03:38:11 17° 54° (NE) 1,127 6.0 -28.7°
Drops below altitude 10° 03:39:05 10° 61° (ENE) 1,459 6.7 -28.6°
Sets 03:41:14 0° 69° (ENE) 2,313 7.9 -28.3°
